C13LL CYXU-CYXU

Flight info

Callsign C13LL
Flight time 0h 2m
Altitude 3500
Route
Aircraft C185

Departure

Time 2026-04-28 22:37
Airport London International Airport (CYXU)

Arrival

Time 2026-04-28 22:39
Airport London International Airport (CYXU)
Time Latitude Longitude Altitude Speed Heading
2026-04-28 22:32 43.02794 -81.14724 899 ft 0 kts 235°
2026-04-28 22:34 43.02790 -81.14725 899 ft 5 kts 116°
2026-04-28 22:34 43.02819 -81.14706 899 ft 9 kts 39°
2026-04-28 22:34 43.02781 -81.14582 898 ft 21 kts 137°
2026-04-28 22:34 43.02677 -81.14453 900 ft 20 kts 140°
2026-04-28 22:35 43.02567 -81.14325 898 ft 22 kts 138°
2026-04-28 22:35 43.02453 -81.14189 896 ft 22 kts 139°
2026-04-28 22:35 43.02340 -81.14056 895 ft 20 kts 139°
2026-04-28 22:35 43.02307 -81.13978 895 ft 5 kts 68°
2026-04-28 22:36 43.02308 -81.13975 895 ft 0 kts 50°
2026-04-28 22:36 43.02340 -81.13926 894 ft 19 kts 45°
2026-04-28 22:37 43.02422 -81.13847 895 ft 10 kts 322°
2026-04-28 22:37 43.02649 -81.14110 906 ft 78 kts 319°
2026-04-28 22:37 43.03151 -81.14688 1304 ft 101 kts 323°
2026-04-28 22:37 43.03677 -81.15289 1859 ft 105 kts 316°
2026-04-28 22:38 43.03595 -81.16010 1996 ft 113 kts 204°
2026-04-28 22:38 43.02799 -81.15627 1992 ft 135 kts 140°
2026-04-28 22:38 43.02098 -81.14766 2045 ft 137 kts 144°
2026-04-28 22:38 43.01322 -81.14022 2146 ft 133 kts 157°
2026-04-28 22:39 43.01282 -81.13429 1358 ft 113 kts 347°
2026-04-28 22:39 43.01943 -81.13484 1231 ft 97 kts 350°
2026-04-28 22:39 43.02473 -81.13904 948 ft 73 kts 321°
2026-04-28 22:39 43.02771 -81.14260 905 ft 42 kts 318°